[[{"header":{"parameterUnit":"m.s-1","parameterCategory":1,"la1":30.2991,"la2":30.254,"lo1":-89.0895,"lo2":-89.0444,"dy":0.0017,"dx":0.0017,"nx":28,"ny":28,"refTime":"2024-05-27T03:00:00:Z","depth":0,"parameterNumber":2,"parameterNumberName":"U-component_of_WINDS"},"data":[0,0,0,0,0,0,0,0,0,0,0,0,0,0,0,0,0,0,0,0,0,0,0,0,0,0,0,0,0,0,0,0,0,0,0,0,0,0,0,0,0,0,0,0,0,0,0,0,0,0,0,0,0,0,0,0,0,0,2.2908,2.291,0,2.3084,2.3086,2.3088,2.3124,2.3122,2.3121,2.312,2.3303,2.3309,2.3315,0,0,0,0,0,0,0,0,0,0,0,0,0,2.2607,2.2612,2.2908,2.291,2.2912,2.3083,2.3086,2.3088,2.3124,2.3122,2.3121,2.3119,2.3301,2.3308,2.3315,0,0,0,0,0,0,0,0,0,0,0,0,0,2.2755,2.2614,2.2908,2.2951,2.2956,2.3083,2.3086,2.3089,2.3124,2.3122,2.312,2.3118,2.3298,2.3307,2.3316,2.3413,0,0,2.3344,2.3348,0,0,0,0,0,0,0,0,2.2747,2.2766,2.2942,2.2948,2.2954,2.308,2.3047,2.3198,2.3125,2.3061,2.312,2.3117,2.323,2.3245,2.3282,2.3422,2.343,2.3345,2.3351,2.3355,2.3357,0,0,0,0,0,0,0,2.2737,2.2759,2.2978,2.2945,2.2952,2.2962,2.2981,2.3076,2.3155,2.3066,2.3069,2.3089,2.3233,2.3273,2.3287,2.3432,2.3345,2.3353,2.3359,2.3362,2.3661,2.3664,0,0,0,0,0,0,2.2718,2.275,2.2972,2.2983,2.2843,2.2969,2.2991,2.3042,2.3154,2.3169,2.3091,2.309,2.3259,2.3276,2.3294,2.3415,2.3355,2.3363,2.3368,2.3659,2.3662,2.3665,0,0,0,0,0,0,2.2712,2.2738,2.2965,2.2868,2.2897,2.2977,2.3034,2.3046,2.3086,2.3172,2.3187,2.3117,2.3258,2.3281,2.3383,2.3422,2.3367,2.3376,2.3656,2.366,2.3663,2.3658,0,0,0,0,0,0,2.2703,2.2735,2.2772,2.2868,2.2902,2.3051,2.3036,2.3051,2.3102,2.3103,2.3201,2.3215,2.3258,2.3369,2.3392,2.3433,2.3383,2.3653,2.3658,2.3662,2.3655,2.3661,2.3666,0,0,0,0,0,2.2692,2.2764,2.2773,2.28,2.295,2.3053,2.3072,2.3119,2.3105,2.3143,2.3198,2.3212,2.3414,2.338,2.3406,2.345,2.3651,2.3657,2.3662,2.3653,2.366,2.3666,0,0,0,0,0,0,2.2671,2.2777,2.2789,2.2894,2.2964,2.3058,2.3108,2.3125,2.3202,2.3199,2.3255,2.3277,2.3377,2.3424,2.3384,2.3551,2.3532,2.3543,2.3516,2.3523,2.3529,2.3515,2.339,0,0,0,0,0,2.2678,2.2752,2.2841,2.2925,2.296,2.3028,2.3074,2.3104,2.318,2.321,2.3273,2.3346,2.3426,2.3477,2.3556,2.3662,2.3685,2.3706,2.3711,2.3715,2.3724,2.3785,2.3795,2.3683,2.3683,2.3683,0,0,2.2694,2.2761,2.2805,2.2923,2.298,2.3056,2.3052,2.3133,2.319,2.3222,2.3323,2.3372,2.3457,2.3562,2.3612,2.3605,2.376,2.3722,2.3725,2.3732,2.3791,2.3802,2.3811,2.3686,2.3686,2.3685,0,0,2.2762,2.282,2.2897,2.2955,2.3042,2.3087,2.3106,2.3198,2.3232,2.3333,2.3359,2.3429,2.3565,2.3625,2.3674,2.3766,2.3782,2.379,2.3818,2.3877,2.3886,2.3894,2.3927,2.3938,2.3799,2.3799,2.3799,0,2.2771,2.2886,2.2934,2.3014,2.3065,2.3097,2.3176,2.323,2.3339,2.3374,2.3365,2.3537,2.3597,2.3717,2.3739,2.3777,2.3801,2.3779,2.388,2.3889,2.3897,2.3929,2.3941,2.3799,2.3799,2.3799,2.3799,0,2.2893,2.2972,2.3024,2.3127,2.3185,2.3264,2.3325,2.3378,2.3403,2.345,2.3553,2.3626,2.372,2.3751,2.3777,2.3875,2.3868,2.3869,2.3851,2.3907,2.3939,2.3951,2.38,2.3799,2.3799,2.3799,0,0,2.2951,2.3081,2.3099,2.3147,2.3246,2.3309,2.339,2.3481,2.3525,2.36,2.3669,2.3785,2.3786,2.3841,2.3874,2.3926,2.3994,2.392,2.3923,2.3931,2.4107,2.4105,2.4118,2.4006,2.4008,2.401,2.41,0,2.3031,2.3175,2.3221,2.3342,2.3416,2.3449,2.3519,2.3588,2.3634,2.3705,2.3756,2.3837,2.3833,2.3866,2.3918,2.3974,2.403,2.3969,2.4071,2.4074,2.4048,2.4135,2.4133,2.4214,2.4112,2.4114,2.4116,0,2.3143,2.3218,2.3346,2.3437,2.347,2.3532,2.362,2.3687,2.3767,2.3797,2.3858,2.3888,2.3975,2.3952,2.4073,2.403,2.4075,2.411,2.4114,2.4125,2.4098,2.4148,2.4241,2.4253,2.4135,2.4134,2.4132,0,2.3172,2.3306,2.34,2.344,2.3548,2.3591,2.3639,2.3716,2.3769,2.3846,2.388,2.3967,2.4014,2.4081,2.4134,2.4113,2.425,2.4232,2.4278,2.4276,2.4304,2.4302,2.4406,2.4334,2.4334,2.4334,2.4334,0,2.3256,2.3332,2.3414,2.3472,2.3559,2.3613,2.3698,2.3748,2.3817,2.3885,2.392,2.3983,2.4049,2.4122,2.4164,2.4257,2.4279,2.4306,2.4316,2.4303,2.4299,2.4332,2.4328,2.4337,2.4336,2.4336,2.4335,0,2.3302,2.336,2.3465,2.3559,2.3585,2.3645,2.3726,2.3784,2.3832,2.3918,2.3942,2.4017,2.4104,2.4164,2.4276,2.4304,2.4406,2.4415,2.4378,2.4383,2.4425,2.442,2.4554,2.4574,2.4489,2.449,2.449,0,2.3351,2.3411,2.3512,2.356,2.3607,2.3684,2.3738,2.3794,2.3848,2.3944,2.3991,2.408,2.4155,2.4293,2.4359,2.4445,2.4456,2.4497,2.447,2.4454,2.4457,2.4452,2.4459,2.4501,2.4502,2.4502,2.4503,0,2.3432,2.3458,2.3533,2.3619,2.3682,2.3752,2.3823,2.3861,2.3929,2.3989,2.4078,2.4136,2.4251,2.434,2.4433,2.4483,2.4504,2.4511,2.4526,2.4513,2.4489,2.4502,2.439,2.4508,2.4507,2.4507,2.4507,2.4506,2.3481,2.3536,2.3616,2.3699,2.3758,2.3824,2.3883,2.3938,2.4013,2.4111,2.414,2.4233,2.4313,2.4439,2.4491,2.4565,2.4562,2.4584,2.4589,2.4593,2.4593,2.4477,2.4583,2.4583,2.4583,2.4583,2.4582,0,2.3563,2.3617,2.3693,2.379,2.3856,2.3871,2.395,2.4004,2.4086,2.4158,2.4231,2.4335,2.4421,2.4494,2.4584,2.4629,2.4642,2.4651,2.4648,2.4659,2.4592,2.4569,2.4639,2.4639,2.4639,2.4639,2.4639,2.4639,2.3614,2.3707,2.3743,2.3867,2.392,2.4011,2.4056,2.4117,2.4175,2.4288,2.436,2.4407,2.448,2.4576,2.4656,2.4675,2.4707,2.4714,2.4735,2.467,2.4664,2.4657,2.4637,2.472,2.472,2.4796,2.4797,2.4797]},{"header":{"parameterUnit":"m.s-1","parameterCategory":1,"la1":30.2991,"la2":30.254,"lo1":-89.0895,"lo2":-89.0444,"dy":0.0017,"dx":0.0017,"nx":28,"ny":28,"refTime":"2024-05-27T03:00:00:Z","depth":0,"parameterNumber":3,"parameterNumberName":"V-component_of_WINDS"},"data":[0,0,0,0,0,0,0,0,0,0,0,0,0,0,0,0,0,0,0,0,0,0,0,0,0,0,0,0,0,0,0,0,0,0,0,0,0,0,0,0,0,0,0,0,0,0,0,0,0,0,0,0,0,0,0,0,0,0,4.4643,4.4644,0,4.4783,4.4785,4.4786,4.4789,4.4787,4.4786,4.4784,4.4922,4.4927,4.4933,0,0,0,0,0,0,0,0,0,0,0,0,0,4.4371,4.4376,4.4642,4.4644,4.4646,4.4783,4.4785,4.4787,4.479,4.4787,4.4785,4.4783,4.492,4.4927,4.4933,0,0,0,0,0,0,0,0,0,0,0,0,0,4.4498,4.4378,4.4642,4.4664,4.4668,4.4783,4.4785,4.4787,4.479,4.4787,4.4785,4.4782,4.4918,4.4926,4.4934,4.5035,0,0,4.4958,4.4962,0,0,0,0,0,0,0,0,4.4491,4.4508,4.4659,4.4663,4.4667,4.4766,4.474,4.487,4.4791,4.4743,4.4784,4.4781,4.4872,4.4884,4.4915,4.5041,4.5047,4.4959,4.4964,4.4967,4.4969,0,0,0,0,0,0,0,4.4482,4.4502,4.4698,4.4661,4.4666,4.4665,4.468,4.4764,4.482,4.4747,4.4748,4.4765,4.4874,4.4908,4.4919,4.5049,4.4959,4.4966,4.4971,4.4974,4.5265,4.5267,0,0,0,0,0,0,4.447,4.4494,4.4693,4.4702,4.4571,4.4672,4.4689,4.4737,4.4819,4.483,4.4767,4.4764,4.4896,4.4909,4.4924,4.5048,4.4967,4.4974,4.4979,4.5262,4.5265,4.5269,0,0,0,0,0,0,4.4464,4.4487,4.4688,4.4599,4.4624,4.468,4.4733,4.4741,4.4775,4.4834,4.4844,4.4792,4.4894,4.4912,4.5008,4.5052,4.4978,4.4985,4.5258,4.5263,4.5267,4.5296,0,0,0,0,0,0,4.4456,4.4485,4.4525,4.46,4.4629,4.4771,4.4736,4.4746,4.479,4.4788,4.486,4.487,4.4893,4.4996,4.5015,4.5062,4.4991,4.5254,4.526,4.5265,4.5291,4.5301,4.5309,0,0,0,0,0,4.4446,4.4527,4.4527,4.4551,4.4681,4.4774,4.479,4.4818,4.4793,4.4833,4.4871,4.4867,4.5044,4.5005,4.5028,4.5077,4.5252,4.5259,4.5265,4.5287,4.5299,4.5309,0,0,0,0,0,0,4.4454,4.4537,4.4539,4.4646,4.4703,4.4774,4.4826,4.4829,4.4893,4.4888,4.4917,4.4934,4.5029,4.5062,4.5018,4.5179,4.5145,4.5156,4.5154,4.5166,4.5174,4.5164,4.4998,0,0,0,0,0,4.4469,4.4539,4.4607,4.4695,4.4724,4.477,4.4811,4.4828,4.4887,4.4911,4.4956,4.5012,4.508,4.5125,4.5191,4.5296,4.5311,4.5341,4.535,4.5357,4.5366,4.5425,4.5438,4.529,4.529,4.529,0,0,4.4499,4.4553,4.4595,4.4698,4.4744,4.4815,4.479,4.4866,4.4919,4.4922,4.5015,4.505,4.5115,4.5216,4.5262,4.5246,4.5411,4.5365,4.537,4.5376,4.5433,4.5447,4.5459,4.5295,4.5294,4.5293,0,0,4.459,4.4638,4.4717,4.4765,4.4836,4.4866,4.4885,4.4956,4.498,4.5075,4.5079,4.514,4.5257,4.5304,4.5342,4.5452,4.5451,4.5472,4.5519,4.5575,4.5587,4.5597,4.5637,4.565,4.5481,4.5481,4.5481,0,4.4618,4.4728,4.4757,4.4834,4.4879,4.4887,4.4966,4.501,4.5098,4.5128,4.5109,4.5257,4.5301,4.5413,4.544,4.5471,4.5492,4.5464,4.5583,4.5594,4.5604,4.5642,4.5657,4.5484,4.5483,4.5483,4.5483,0,4.4759,4.4834,4.4889,4.4977,4.5027,4.5105,4.5144,4.5192,4.5203,4.5235,4.5331,4.5384,4.5461,4.5489,4.55,4.5602,4.5591,4.5577,4.5544,4.562,4.5656,4.5671,4.5487,4.5486,4.5485,4.5485,0,0,4.4859,4.4963,4.4983,4.5023,4.5102,4.516,4.5237,4.5315,4.5355,4.5415,4.548,4.5579,4.5568,4.5612,4.5628,4.5678,4.5761,4.5658,4.566,4.5676,4.5878,4.5888,4.5904,4.5761,4.5764,4.5766,4.5873,0,4.496,4.51,4.5129,4.525,4.532,4.5328,4.5396,4.545,4.5482,4.5544,4.5578,4.5648,4.5627,4.5654,4.5704,4.5741,4.5802,4.5733,4.5821,4.5824,4.5805,4.5923,4.5934,4.6032,4.5887,4.5889,4.5891,0,4.5096,4.5162,4.5291,4.5362,4.5392,4.5452,4.5526,4.5586,4.5648,4.5667,4.5717,4.5728,4.5807,4.5769,4.5878,4.5831,4.5868,4.5891,4.5896,4.5905,4.5862,4.5936,4.6064,4.6079,4.5913,4.5911,4.591,0,4.5157,4.5278,4.5371,4.5405,4.5489,4.5532,4.5568,4.5628,4.5673,4.5736,4.5766,4.5837,4.5875,4.5929,4.5959,4.5928,4.6066,4.603,4.6083,4.6083,4.6112,4.611,4.6248,4.6135,4.6135,4.6134,4.6134,0,4.5267,4.5345,4.54,4.5457,4.5545,4.5576,4.5661,4.5697,4.575,4.5813,4.5824,4.5882,4.5917,4.598,4.6003,4.609,4.6107,4.6124,4.613,4.6124,4.6122,4.6149,4.6144,4.6138,4.6138,4.6137,4.6136,0,4.535,4.539,4.5492,4.5565,4.5584,4.5646,4.5707,4.5762,4.5793,4.5873,4.5893,4.5942,4.6017,4.6052,4.6143,4.6159,4.6258,4.6258,4.6238,4.624,4.6292,4.6287,4.6453,4.6476,4.6347,4.6348,4.6349,0,4.5418,4.5479,4.5559,4.5603,4.5642,4.5712,4.5759,4.5791,4.5839,4.5914,4.596,4.6036,4.6098,4.6217,4.626,4.633,4.6332,4.6386,4.6343,4.6336,4.6334,4.6331,4.6337,4.6393,4.6395,4.6396,4.6397,0,4.5534,4.5552,4.562,4.5695,4.5751,4.5811,4.587,4.5904,4.5946,4.5999,4.6077,4.6125,4.622,4.6295,4.6369,4.6404,4.6407,4.641,4.6426,4.6421,4.6408,4.6417,4.626,4.6406,4.6405,4.6404,4.6404,4.6403,4.5613,4.5668,4.5733,4.5808,4.5856,4.5911,4.5967,4.6006,4.6073,4.6154,4.6168,4.6251,4.6311,4.641,4.6449,4.6513,4.65,4.6523,4.6529,4.6535,4.6538,4.6397,4.6526,4.6526,4.6526,4.6525,4.6525,0,4.573,4.5773,4.5842,4.5925,4.5984,4.5984,4.6049,4.6098,4.6172,4.6228,4.629,4.638,4.6453,4.6501,4.6575,4.6617,4.662,4.6635,4.6632,4.6641,4.6545,4.6524,4.6631,4.6631,4.6631,4.6631,4.6631,4.6631,4.5798,4.5892,4.5917,4.6033,4.6075,4.6158,4.6195,4.6246,4.6291,4.6392,4.6453,4.6485,4.6538,4.6616,4.6682,4.6694,4.6721,4.6737,4.6748,4.6658,4.6647,4.6637,4.6617,4.6742,4.6742,4.6839,4.684,4.684]}]]